Weather Roundup
Issued by NWS

Home | Current Version | Previous Version | Graphics & Text | Print | Product List | Glossary Off
Versions: 1 2 3 4 5 6 7 8 9 10 11 12 13 14 15 16 17 18 19 20 21 22 23 24 25 26 27 28 29 30 31 32 33 34 35 36 37 38 39 40 41 42 43 44 45 46 47 48 49 50

000
NZUS93 KARX 270110
HRRWXR

CURRENT HOURLY OBSERVATIONS ACROSS
MUCH OF THE UPPER MISSISSIPPI VALLEY
NATIONAL WEATHER SERVICE LA CROSSE WI
800 PM CDT THU MAR 26 2015


...SOUTHEAST MINNESOTA...


CITY           SKY/WX    TMP DP  RH WIND       PRES   REMARKS
ROCHESTER      CLOUDY    29  19  66 NW14      30.09R WCI  18
ROCHESTER/MAYO CLOUDY    32  19  60 NW7       30.10R WCI  25
WINONA         CLOUDY    34  21  60 N6        30.12R WCI  29
AUSTIN         CLOUDY    30  21  69 NW9       30.11R WCI  22
ALBERT LEA     CLOUDY    30  21  69 NW7       30.12R WCI  23
DODGE CENTER   CLOUDY    30  21  69 NW10      30.10R WCI  21
PRESTON        CLOUDY    29  21  71 NW9       30.09R WCI  21
OWATONNA       MOCLDY    30  19  64 NW10      30.13R WCI  21
FARIBAULT      PTCLDY    28  18  64 NW7       30.14R WCI  21
$$

...ELSEWHERE IN MINNESOTA...


CITY           SKY/WX    TMP DP  RH WIND       PRES   REMARKS
MINNEAPOLIS    PTCLDY    31   6  35 N13       30.15R WCI  21
INTNL FALLS    CLEAR     22   1  40 N10       30.22R WCI  11
DULUTH         PTCLDY    24   2  38 N7        30.13R WCI  16
RED WING       MOCLDY    32  12  43 N5        30.12R WCI  27
REDWOOD FALLS  PTCLDY    29  17  61 N8        30.19R WCI  21
MANKATO        MOCLDY    30  18  59 NW10      30.15R WCI  21
WORTHINGTON    MOCLDY    28  16  59 N18       30.18R WCI  16
FAIRMONT       CLOUDY    30  18  59 NW16      30.15R WCI  19
$$

...SOUTHWEST WISCONSIN...


CITY           SKY/WX    TMP DP  RH WIND       PRES   REMARKS
LA CROSSE      CLOUDY    34  18  52 N9        30.10R WCI  27
PRAIRIE DU CHI MOCLDY    33  19  57 NW8       30.09R WCI  26
BOSCOBEL       CLOUDY    35  19  52 N7        30.08R WCI  29
LONE ROCK      CLOUDY    34  16  47 N12       30.07R WCI  25
PLATTEVILLE    CLOUDY    32  22  66 NW8       30.05R WCI  25
FORT MC COY    CLOUDY    31  14  50 N6        30.10R WCI  25
CAMP DOUGLAS   MOCLDY    30  19  64 N8        30.07R WCI  23
VIROQUA        CLOUDY    31  19  61 N8        30.06R WCI  23
WIS DELLS      CLOUDY    31  15  52 N12       30.06R WCI  21
$$

...ELSEWHERE IN WISCONSIN...


CITY           SKY/WX    TMP DP  RH WIND       PRES   REMARKS
MILWAUKEE      CLOUDY    32  16  51 N14G23    30.03R WCI  22
MADISON        CLOUDY    32  18  56 N8        30.05R WCI  25
GREEN BAY      CLOUDY    30  16  56 N15       30.07R WCI  19
EAU CLAIRE     CLEAR     28  11  48 N6        30.10R WCI  22
BLACK RVR FLS  CLOUDY    32  12  43 N6        30.09R WCI  26
MEDFORD        PTCLDY    22   9  57 N10       30.07R WCI  11
WAUSAU         FAIR      24   9  52 N8        30.07R WCI  15
WIS RAPIDS     CLOUDY    27  11  51 N12       30.09R WCI  17
MARSHFIELD     PTCLDY    26  12  55 N8        30.07R WCI  18
RICE LAKE      CLEAR     28   5  37 N10       30.12R WCI  19
$$

...NORTHEAST IOWA...


CITY           SKY/WX    TMP DP  RH WIND       PRES   REMARKS
DECORAH        CLOUDY    30  21  69 VRB6      30.08R WCI  24
MASON CITY     CLOUDY    30  20  66 N17       30.14R WCI  18
CHARLES CITY   PTCLDY    30  23  74 NW14      30.12R WCI  20
OELWEIN        CLEAR     30  21  69 NW12      30.11R WCI  21
$$

...ELSEWHERE IN IOWA...


CITY           SKY/WX    TMP DP  RH WIND       PRES   REMARKS
DES MOINES     CLOUDY    40  24  53 N14       30.12R WCI  32
IOWA CITY      MOCLDY    36  23  59 N16G23    30.10R WCI  26
FORT DODGE     CLOUDY    34  19  55 N8        30.15R WCI  27
$$

...NORTHERN ILLINOIS...


CITY           SKY/WX    TMP DP  RH WIND       PRES   REMARKS
CHICAGO-OHARE  CLOUDY    36  19  50 N17       30.00S WCI  26
CHICAGO-MIDWAY MOCLDY    39  21  48 N13       30.01R WCI  31
MOLINE         CLEAR     36  21  54 N14       30.06R WCI  27
ROCKFORD       CLOUDY    35  19  52 N7        30.05R WCI  29
PEORIA         CLEAR     42  23  46 N6        30.04R
$$

NOTE: "FAIR" INDICATES FEW OR NO CLOUDS BELOW 12,000 FEET WITH NO
SIGNIFICANT WEATHER AND/OR OBSTRUCTIONS TO VISIBILITY. WIND
SPEEDS ARE IN MILES-PER-HOUR.



USA.gov is the U.S. government's official web portal to all federal, state and local government web resources and services.